(68469) = 1993 FL78 = 2001 SC253

Discovered at Socorro on 2001-09-19 by LINEAR.

Orbit

Orbit type: Main Belt

Note: WebGL enabled browser required.

epoch2024-03-31.0
epoch JD2460400.5
perihelion date2023-11-11.80452
perihelion JD2460260.30452
argument of perihelion (°)231.44228
ascending node (°)190.34241
inclination (°)10.15752
eccentricity0.0492169
perihelion distance (AU)2.9342185
Tisserand w.r.t. Jupiter3.2
ΔV w.r.t. Earth (km/sec)11.1
semimajor axis (AU)3.0861072
mean anomaly (°)25.48715
mean daily motion (°/day)0.18179730
aphelion distance (AU)3.238
period (years)5.42
P-vector [x]0.47498661
P-vector [y]0.85225797
P-vector [z]0.21918957
Q-vector [x]-0.87942327
Q-vector [y]0.46868009
Q-vector [z]0.08338869
absolute magnitude14.94
phase slope0.15
uncertainty0
referenceMPEC 2024-F50
observations used917
oppositions19
arc length (days)12205
first opposition used1990
last opposition used2024
residual rms (arc-secs)0.78
perturbers coarse indicatorM-v
perturbers precise indicator003Ek
first observation date used1990-10-19.0
last observation date used2024-03-19.0
computer nameMPCLINUX
JD of orbit computation2456760.637907
perihelion JD uncertainty (days)3.9099E-04
argument of perihelion uncertainty (°)7.8842E-05
ascending node uncertainty (°)2.6137E-05
inclination uncertainty (°)6.1369E-06
eccentricity uncertainty 4.2187E-08
perihelion distance uncertainty (AU)1.3051E-07
Minimum Orbit Intersection Distances (in AU)
for orbit epoch: 2460400.5, reference: E2024-F50
Mercury2.62349
Venus2.21776
Earth1.95721
Mars1.43391
Jupiter1.95995
Saturn6.14451
Uranus15.3147
Neptune26.8629

Observations

931 total observations over interval: 1990 10 19.14578 – 2024 03 19.287093
These data are available for download (format description).

Date (UT) J2000 RA J2000 Dec Magn Location Ref
1990 10 19.14578 01 19 45.20 +05 12 19.7 20.2 V 691 – Steward Observatory, Kitt Peak-Spacewatch MPS 78107
1990 10 19.18800 01 19 43.40 +05 12 01.1 20.0 V 691 – Steward Observatory, Kitt Peak-Spacewatch MPS 78107
1990 10 19.21288 01 19 42.29 +05 11 50.1 20.0 V 691 – Steward Observatory, Kitt Peak-Spacewatch MPS 78107
1993 03 21.30174 12 58 38.16 -06 11 13.2 19.4   809 – European Southern Observatory, La Silla MPC 23633
1993 03 22.29549 12 57 59.96 -06 04 22.3 19.6   809 – European Southern Observatory, La Silla MPC 23633
2001 09 17.31881 02 35 54.78 +11 21 52.1 19.7 R 699 – Lowell Observatory-LONEOS MPS 44016
2001 09 17.34627 02 35 54.52 +11 21 46.3   699 – Lowell Observatory-LONEOS MPS 44016
2001 09 17.37379 02 35 54.21 +11 21 38.3   699 – Lowell Observatory-LONEOS MPS 44016
2001 09 17.40141 02 35 53.79 +11 21 30.7   699 – Lowell Observatory-LONEOS MPS 44016
2001 09 19.39538 02 35 31.58 +11 12 00.2 19.6   704 – Lincoln Laboratory ETS, New Mexico MPS 36805
2001 09 19.40964 02 35 31.38 +11 11 55.6 19.9   704 – Lincoln Laboratory ETS, New Mexico MPS 36805
2001 09 19.42389 02 35 31.16 +11 11 51.3 19.9   704 – Lincoln Laboratory ETS, New Mexico MPS 36805
2001 09 19.43820 02 35 30.94 +11 11 46.8 20.3   704 – Lincoln Laboratory ETS, New Mexico MPS 36805
2001 09 19.45247 02 35 30.78 +11 11 42.3 20.0   704 – Lincoln Laboratory ETS, New Mexico MPS 36805
2001 09 21.41399 02 35 03.57 +11 01 52.9 19.3   704 – Lincoln Laboratory ETS, New Mexico MPS 36805
2001 09 21.42823 02 35 03.27 +11 01 48.3 19.7   704 – Lincoln Laboratory ETS, New Mexico MPS 36805
2001 09 21.44248 02 35 03.03 +11 01 44.0 19.7   704 – Lincoln Laboratory ETS, New Mexico MPS 36805
2001 09 21.45674 02 35 02.84 +11 01 39.1 19.9   704 – Lincoln Laboratory ETS, New Mexico MPS 36805
2001 09 21.47100 02 35 02.57 +11 01 34.4 19.3   704 – Lincoln Laboratory ETS, New Mexico MPS 36805
2001 09 26.33926 02 33 33.38 +10 35 17.2 19.4   704 – Lincoln Laboratory ETS, New Mexico MPS 49501
2001 09 26.35387 02 33 33.05 +10 35 12.3 20.0   704 – Lincoln Laboratory ETS, New Mexico MPS 49501
2001 09 26.36846 02 33 32.73 +10 35 07.8 19.8   704 – Lincoln Laboratory ETS, New Mexico MPS 49501
2001 09 26.38304 02 33 32.37 +10 35 01.2 20.1   704 – Lincoln Laboratory ETS, New Mexico MPS 49501
2001 10 17.25244 02 22 13.81 +08 19 24.5 19.1   704 – Lincoln Laboratory ETS, New Mexico MPS 40659
2001 10 17.26846 02 22 13.12 +08 19 18.0 19.4   704 – Lincoln Laboratory ETS, New Mexico MPS 40659
2001 10 17.28445 02 22 12.45 +08 19 11.2 19.3   704 – Lincoln Laboratory ETS, New Mexico MPS 40659
2001 10 17.30043 02 22 11.76 +08 19 04.5 19.0   704 – Lincoln Laboratory ETS, New Mexico MPS 40659
2001 10 17.31678 02 22 11.04 +08 18 58.0 19.3   704 – Lincoln Laboratory ETS, New Mexico MPS 40659
2001 10 18.36231 02 21 27.54 +08 11 36.1 19.3   644 – Palomar Mountain/NEAT MPS 44016
2001 10 18.38675 02 21 26.47 +08 11 25.6 19.4   644 – Palomar Mountain/NEAT MPS 44016
2001 10 18.40790 02 21 25.56 +08 11 16.7 19.4   644 – Palomar Mountain/NEAT MPS 44016
2001 10 22.21377 02 18 43.34 +07 44 29.4 18.4   704 – Lincoln Laboratory ETS, New Mexico MPS 40659
2001 10 22.23020 02 18 42.58 +07 44 23.0 18.7   704 – Lincoln Laboratory ETS, New Mexico MPS 40659
2001 10 22.24670 02 18 41.86 +07 44 15.6 19.0   704 – Lincoln Laboratory ETS, New Mexico MPS 40659
2001 10 22.28055 02 18 40.35 +07 44 01.5 19.1   704 – Lincoln Laboratory ETS, New Mexico MPS 40659
2001 10 23.33758 02 17 54.15 +07 36 35.3 18.5   704 – Lincoln Laboratory ETS, New Mexico MPS 40659
2001 10 23.35396 02 17 53.41 +07 36 28.2 18.7   704 – Lincoln Laboratory ETS, New Mexico MPS 40659
2001 10 23.37035 02 17 52.68 +07 36 21.2 18.7   704 – Lincoln Laboratory ETS, New Mexico MPS 40659
2001 10 23.38676 02 17 51.90 +07 36 14.4 18.7   704 – Lincoln Laboratory ETS, New Mexico MPS 40659
2001 10 23.40316 02 17 51.19 +07 36 07.3 18.8   704 – Lincoln Laboratory ETS, New Mexico MPS 40659
2001 10 24.32403 02 17 10.98 +07 29 43.4 18.4   704 – Lincoln Laboratory ETS, New Mexico MPS 40659
2001 10 24.34040 02 17 10.23 +07 29 36.8 18.9   704 – Lincoln Laboratory ETS, New Mexico MPS 40659
2001 10 24.35680 02 17 09.47 +07 29 29.4 19.0   704 – Lincoln Laboratory ETS, New Mexico MPS 40659
2001 10 24.37319 02 17 08.73 +07 29 22.6 18.9   704 – Lincoln Laboratory ETS, New Mexico MPS 40659
2001 10 24.38957 02 17 07.98 +07 29 15.8 18.9   704 – Lincoln Laboratory ETS, New Mexico MPS 40659
2001 11 18.22185 02 00 05.28 +04 59 07.4 19.5   704 – Lincoln Laboratory ETS, New Mexico MPS 44016
2001 11 18.23675 02 00 04.73 +04 59 02.9 19.0   704 – Lincoln Laboratory ETS, New Mexico MPS 44016
2001 11 18.25165 02 00 04.22 +04 58 59.1 19.6   704 – Lincoln Laboratory ETS, New Mexico MPS 44016
2001 11 18.26655 02 00 03.68 +04 58 54.7 19.6   704 – Lincoln Laboratory ETS, New Mexico MPS 44016
2001 11 18.28147 02 00 03.17 +04 58 50.5 19.5   704 – Lincoln Laboratory ETS, New Mexico MPS 44016
2001 11 20.21826 01 59 00.08 +04 50 12.5 18.6 R 699 – Lowell Observatory-LONEOS MPS 49501
2001 11 20.23673 01 58 59.50 +04 50 07.4   699 – Lowell Observatory-LONEOS MPS 49501
2001 11 20.25577 01 58 58.84 +04 50 03.0   699 – Lowell Observatory-LONEOS MPS 49501
2001 11 20.27480 01 58 58.26 +04 49 58.4   699 – Lowell Observatory-LONEOS MPS 49501
2002 11 13.464920 08 37 29.546 +06 47 56.59 20.44 V 645 – Apache Point-Sloan Digital Sky Survey MPS 79931
2002 11 13.468392 08 37 29.638 +06 47 55.53 21.20   645 – Apache Point-Sloan Digital Sky Survey MPS 79931
2003 01 05.32214 08 31 21.54 +04 42 30.7 18.7 C 704 – Lincoln Laboratory ETS, New Mexico MPS 289693
2003 01 05.32227 08 31 21.48 +04 42 30.0 19.4   704 – Lincoln Laboratory ETS, New Mexico MPS 81442
2003 01 05.33713 08 31 20.88 +04 42 31.9 18.5 C 704 – Lincoln Laboratory ETS, New Mexico MPS 289693
2003 01 05.33726 08 31 20.86 +04 42 30.8 19.7   704 – Lincoln Laboratory ETS, New Mexico MPS 81442
2003 01 05.36791 08 31 19.62 +04 42 34.0 18.6 C 704 – Lincoln Laboratory ETS, New Mexico MPS 289693
2003 01 05.38314 08 31 19.09 +04 42 35.6 18.8 C 704 – Lincoln Laboratory ETS, New Mexico MPS 289693
2003 01 05.38327 08 31 18.96 +04 42 34.9 19.5   704 – Lincoln Laboratory ETS, New Mexico MPS 81442
2003 01 26.33850 08 15 23.11 +05 41 49.5 19.3   644 – Palomar Mountain/NEAT MPS 81442
2003 01 26.36787 08 15 21.67 +05 41 56.8 19.6   644 – Palomar Mountain/NEAT MPS 81442
2003 01 26.40590 08 15 19.79 +05 42 06.6 19.4   644 – Palomar Mountain/NEAT MPS 81442
2003 01 28.208860 08 13 53.936 +05 49 50.85 19.38 V 645 – Apache Point-Sloan Digital Sky Survey MPS 274742
2003 01 28.212332 08 13 53.765 +05 49 51.74 20.22   645 – Apache Point-Sloan Digital Sky Survey MPS 274742
2003 02 01.43357 08 10 35.90 +06 09 15.6 20.7   608 – Haleakala-AMOS MPS 81442
2003 02 01.44426 08 10 35.38 +06 09 19.7 20.4   608 – Haleakala-AMOS MPS 81442
2003 02 01.45471 08 10 34.87 +06 09 21.5 20.9   608 – Haleakala-AMOS MPS 81442
2004 03 28.38026 13 52 32.16 -08 19 18.8 19.4   704 – Lincoln Laboratory ETS, New Mexico MPS 103756
2004 03 28.39071 13 52 31.73 -08 19 15.1 19.8   704 – Lincoln Laboratory ETS, New Mexico MPS 103756
2004 03 28.40097 13 52 31.39 -08 19 11.3 19.3   704 – Lincoln Laboratory ETS, New Mexico MPS 103756
2004 03 28.41135 13 52 30.97 -08 19 07.1 19.6   704 – Lincoln Laboratory ETS, New Mexico MPS 103756
2004 03 28.42161 13 52 30.63 -08 19 03.5 20.0   704 – Lincoln Laboratory ETS, New Mexico MPS 103756
2004 04 09.55701 13 44 40.29 -06 57 34.2 19.1 R E12 – Siding Spring Survey MPS 104801
2004 04 09.56738 13 44 39.87 -06 57 30.1 18.8 R E12 – Siding Spring Survey MPS 104801
2004 04 09.57772 13 44 39.41 -06 57 25.4 19.8 R E12 – Siding Spring Survey MPS 104801
2004 04 09.58803 13 44 38.97 -06 57 21.7 18.8 R E12 – Siding Spring Survey MPS 104801
2004 04 16.26016 13 39 57.64 -06 11 38.7 19.7   704 – Lincoln Laboratory ETS, New Mexico MPS 106010
2004 04 16.27108 13 39 57.21 -06 11 33.9 19.5   704 – Lincoln Laboratory ETS, New Mexico MPS 106010
2004 04 16.28555 13 39 56.51 -06 11 28.3 19.7   704 – Lincoln Laboratory ETS, New Mexico MPS 106010
2004 04 16.29722 13 39 56.00 -06 11 23.6 19.3   704 – Lincoln Laboratory ETS, New Mexico MPS 106010
2004 04 16.32657 13 39 54.82 -06 11 11.1 19.2   644 – Palomar Mountain/NEAT MPS 106010
